Погода в Уиле

Погода в Уиле : погода сейчас, прогноз погоды и архив. Всё, что Вы хотите узнать о погоде в Уиле!

Хотите узнать прогноз погоды в Уиле? Тогда Вам сюда: Погода в Уиле

Поиск расширенной информации на нашем сайте:

Другие новости

Новости СМИ2

Главная страница сайта

Новости сайта

03.07.2017

Напоминаем, что на нашем специализированном сайте Метеоцентр.Азия вы можете получить высокодетализированные автоматические прогнозы погоды по пунктам России, СНГ и мира в авиационном формате (включающие направление и скорость ветра, видимость, явления погоды, количество и форму облачности, нижнюю и верхнюю границу облачности).


Погода в Уиле - сегодня

Время (UTC), дата Ветер
(°,м/с) 
Видим.   Явления Облачность Т
(°С)
Тd
(°С)
f(%) Тe
(°С)
Pmin
(гПа)
dP
(гПа)
Po
(мм)
O2
(г/м3)
Тmin Tmax R s Состояние
почвы
18 18.01.18 070 (В) н/о    ясно 
-18.6 -20.6 84 -23  1026.8  -0.9  760  330    -15.2       
21 18.01.18 080 (В) н/о    3/0 верхняя 
[Ci fib]
-18.2 -19.8 87 -22  1026.4  -0.4  760  330           
00 19.01.18 060 (СВ) н/о    ясно 
-17.4 -18.8 89 -20  1025.6  -0.7  759  328           
03 19.01.18 060 (СВ) н/о  слаб. снег  10/10 600 м 
[Ns]
-14.1 -15.7 88 -16  1024.8  -0.6  759  324        неравномерный
сухой снег
100% 
06 19.01.18 080 (В) 4000 м  слаб. снег  10/10 600 м 
[Ns]
-12.8 -14.7 86 -18  1025.6  0.8  760  322  -19.9    0.0     
09 19.01.18 090 (В) 10 км  {снег}  8/6 1000 м средняя 
[Sc|Ac As]
-10.1 -12.4 83 -15  1025.6  0.1  760  319           
12 19.01.18 080 (В) 4000 м  слаб. снег  10/10 600 м 
[Ns]
-9.4 -11.5 85 -14  1025.7  0.2  760  318           
15 19.01.18 060 (СВ) н/о  {снег}  9/8 1000 м средняя 
[Sc|Ac As]
-9.9 -12.1 84 -14  1026.1  0.4  760  319    -9       
18 19.01.18 080 (В) н/о  {снег}  9/9 600 м 
[Sc]
-10.6 -12.8 84 -15  1026.4  0.3  760  320    -0.9  0.0     
21 19.01.18 060 (СВ) н/о    8/8 600 м 
[Sc]
-11.4 -13.3 86 -16  1026.3  -0.2  760  321           
00 20.01.18 050 (СВ) н/о    ясно 
-14.2 -15.9 87 -19  1026.1  -0.4  760  324           
03 20.01.18 060 (СВ) н/о    8/8 600 м 
[Sc]
-12.6 -14.7 84 -18  1025.6  -0.4  760  322  -14.3      равномерный
сухой снег
100% 
06 20.01.18 060 (СВ) 10 км    10/0 средняя 
[Ac As]
-11.4 -14.8 76 -18  1025.7  0.2  760  321  -14.3         
09 20.01.18 050 (СВ) 10 км    9/6 1000 м средняя 
[Sc|Ac trans]
-9 -12.4 76 -14  1024.9  -0.7  759  318           
12 20.01.18 050 (СВ) 10 км    9/9 1000 м 
[Sc]
-8.1 -10.8 81 -13  1024.7  -0.1  759  316           
15 20.01.18 030 (СВ) н/о    10/10 600 м 
[Sc]
-9.1 -11.6 82 -14  1025  0.2  759  318    -7.8       
18 20.01.18 340 (С) н/о    9/9 1000 м 
[Sc]
-11 -13 85 -14  1026.5  1.4  760  320    -7.8       
21 20.01.18 310 (СЗ) н/о    ясно 
-13.5 -15.1 88 -16  1026.3  -0.4  760  324           
00 21.01.18 060 (СВ) н/о    ясно 
-11.3 -13.8 82 -15  1025.6  -0.5  760  321           
03 21.01.18 070 (В) н/о    ясно 
-12.2 -15.1 79 -18  1025.4  -0.2  760  322        равномерный
сухой снег
100% 
06 21.01.18 070 (В) 10 км    3/0 верхняя 
[Ci fib]
-11.8 -14.9 78 -16  1026.1  0.7  760  321  -13.5         
09 21.01.18 090 (В) 10 км    6/0 верхняя 
[Ci fib]
-8.9 -11.8 79 -13  1026.1  0.1  760  318           
12 21.01.18 070 (В) 10 км    10/0 средняя 
[Ac und]
-7.5 -9.3 87 -12  1024.9  -1.1  759  316           
15 21.01.18 080 (В) н/о    10/0 средняя 
[Ac und]
-7.6 -10.7 78 -10  1024.3  -0.6  759  316    -7.1       
18 21.01.18 100 (В) н/о    5/0 средняя 
[Ac trans]
-8.4 -11.2 80 -11  1024.7  0.3  759  317    -7.1       
Время (UTC), дата Ветер
(°,м/с) 
Видим.   Явления Облачность Т
(°С)
Тd
(°С)
f(%) Тe
(°С)
Pmin
(гПа)
dP
(гПа)
Po
(мм)
O2
(г/м3)
Тmin Tmax R s Состояние
почвы

Для получения пояснительной информации подведите курсор к названию столбца.

ПОГОДА в Уиле - архив

Всё, что Вы хотите узнать о погоде в Уиле - удобно и подробно!

Выберите нужную дату (начиная с 1 января 2015* года) и нажмите кнопку "Найти".
Будут отображены архивные сводки погоды по пункту Уил, начиная с указанной даты.


Отображать данные в формате CSV (для использования в таблицах Excel)


Внимание! Наш архив погоды предназначен исключительно для личного некоммерческого использования в познавательных целях. Если Вам необходимы официальные справки о состоянии погоды (для производственных, юридических, коммерческих и т.п. целей), обращайтесь в органы Росгидромета.

*Примечание: данная дата относится к архиву по метеостанциям СССР (Россия, СНГ, Балтия).
Архив по метеостанциям Зарубежной Европы и Азии (кроме Китая) хранится 10 дней, по другим регионам земного шара (Китай, Африка, Америка, Австралия, Океания) - 1 день.

Уил - район местоположения метеостанции


Название, широта, долгота, высота метеостанции:
Уил 49.1°ш. 54.7°д. 128 м над ур. моря [Казахстан]

Дополнительная информация

В oтличие oт бoльшинства пoгoдных сайтoв мы публикуем пoдрoбную метеoинфoрмацию в детальнoм прoфессиoнальнoм фoрмате.

Характеристики температуры и влажнoсти вoздуха измеряются на высoте 2 м в тени вдали oт зданий и деревьев.
Скoрoсть ветра измеряется на высoте 10 м (на урoвне рoста челoвека скoрoсть ветра ниже в 1.5-2 раза). Если метеoстанция нахoдится в гoрoде или в лесу, тo скoрoсть ветра занижена на 2-4 м/с пo сравнению с oткрытым местoм. Скoрoсть ветра над акватoриями крупных рек и oзёр, а также на вершинах хoлмoв на 2-5 м/с выше, чем в oбычных услoвиях.
Атмoсфернoе давление в разных тoчках местнoсти мoжет значительнo oтличаться oт давления на метеoстанции, в зависимoсти oт услoвий рельефа (при пoдъёме на 10 м давление пoнижается примернo на 1 мм рт.ст.).